Terminal Aerodrome Forecast
Issued by NWS Blacksburg, VA

Current Version | Previous Version | Text Only | Print | Product List | Glossary Off
Versions: 1 2 3 4 5 6 7 8 9 10 11 12 13 14 15 16 17 18 19 20 21 22 23 24 25 26 27 28 29 30

000
FTUS41 KRNK 040522
TAFBLF
TAF
KBLF 040522Z 0406/0506 27003KT P6SM OVC120
     FM040700 24003KT 6SM HZ BKN025
     FM041300 32004KT P6SM SCT025 BKN050
     FM041700 02003KT P6SM VCTS BKN050CB
     FM042300 12003KT P6SM VCSH SCT040 BKN080=

USA.gov is the U.S. government's official web portal to all federal, state and local government web resources and services.